Regional Weather Roundup
Issued by NWS

Home | Current Version | Previous Version | Text Only | Print | Product List | Glossary On
Versions: 1 2 3 4 5 6 7 8 9 10 11 12 13 14 15 16 17 18 19 20 21 22 23 24 25 26 27 28 29 30 31 32 33 34 35 36 37 38 39 40 41 42 43 44 45 46 47 48 49 50
000
ASUS43 KLMK 041810
RWRKY
KENTUCKY REGIONAL WEATHER ROUNDUP
NATIONAL WEATHER SERVICE LOUISVILLE KY
200 PM EDT FRI SEP 04 2015

NOTE "FAIR" INDICATES FEW OR NO CLOUDS BELOW 12,000 FEET
WITH NO SIGNIFICANT WEATHER AND/OR OBSTRUCTIONS TO VISIBILITY.

KYZ001>023-026-027-061>063-070>075-041900-
WESTERN AND SOUTH CENTRAL KENTUCKY

CITY           SKY/WX    TMP DP  RH WIND       PRES   REMARKS
PADUCAH        SUNNY     92  66  42 VRB3      30.03S HX  94
HENDERSON      PTSUNNY   90  70  51 NE5       30.02F HX  95
OWENSBORO      SUNNY     94  68  42 CALM      30.04F HX  98
HOPKINSVILLE   SUNNY     89  66  46 CALM      30.03F HX  92
BOWLING GREEN  SUNNY     94  65  38 NE8       30.04F HX  96
GLASGOW        MOSUNNY   92  60  34 SE3       30.05S HX  91
$$

KYZ024-025-028>034-038-045-046-053-041900-
NORTH CENTRAL KENTUCKY

CITY           SKY/WX    TMP DP  RH WIND       PRES   REMARKS
LOUISVILLE/SDF MOSUNNY   93  65  39 VRB3      30.03F HX  95
LOUISVILLE/LOU SUNNY     92  65  40 NE3       30.04F HX  94
FORT KNOX      MOSUNNY   88  65  45 CALM      30.04F HX  90
$$

KYZ035>037-039>044-047>052-055>060-089>105-041900-
NORTHEAST KENTUCKY

CITY           SKY/WX    TMP DP  RH WIND       PRES   REMARKS
LEXINGTON      SUNNY     89  64  43 W5        30.07F HX  90
COVINGTON      MOSUNNY   91  66  43 S7        30.06F HX  93
FRANKFORT      PTSUNNY   89  63  41 NE6       30.06S HX  90
$$

KYZ054-064>069-076>088-106>120-041900-
SOUTHEAST KENTUCKY

CITY           SKY/WX    TMP DP  RH WIND       PRES   REMARKS
JACKSON        PTSUNNY   86  66  51 CALM      30.10F
LONDON         SUNNY     88  63  43 E6        30.09S
SOMERSET       SUNNY     88  61  40 NE3       30.08F
MIDDLESBORO    SUNNY     87  66  49 NW3       30.08F
MONTICELLO     PTCLDY    90  67  46 CALM      30.09F HX  93
$$




USA.gov is the U.S. government's official web portal to all federal, state and local government web resources and services.